This is the latest recevied weather packets stored in our database for station/object HB0PJ-13. If no packets are shown the sender has not sent any weather packets the latest 1 day(s).
| Time | Temp. | Humidity | Pressure | Rain* | Wind** | Luminosity | Snow |
|---|---|---|---|---|---|---|---|
| 1778057462 | 16.67° C | 52% | 950.6 hPa | - | - | 59 W/m² | - |
| 1778057342 | 16.67° C | 52% | 950.7 hPa | - | - | 43 W/m² | - |
| 1778057222 | 16.67° C | 52% | 950.7 hPa | - | - | 31 W/m² | - |
| 1778057102 | 16.67° C | 52% | 950.7 hPa | - | - | 30 W/m² | - |
| 1778056982 | 16.67° C | 52% | 950.7 hPa | - | - | 35 W/m² | - |
| 1778056862 | 16.67° C | 52% | 950.7 hPa | - | - | 35 W/m² | - |
| 1778056742 | 16.11° C | 53% | 950.7 hPa | - | - | 32 W/m² | - |
| 1778056622 | 16.11° C | 53% | 950.7 hPa | - | - | 29 W/m² | - |
| 1778056502 | 16.11° C | 53% | 950.7 hPa | - | - | 29 W/m² | - |
| 1778056382 | 16.11° C | 52% | 950.8 hPa | - | - | 31 W/m² | - |
| 1778056142 | 16.11° C | 52% | 950.7 hPa | - | - | 38 W/m² | - |
| 1778056022 | 16.11° C | 52% | 950.7 hPa | - | - | 37 W/m² | - |
| 1778055902 | 16.11° C | 51% | 950.7 hPa | - | - | 56 W/m² | - |
| 1778055782 | 16.11° C | 51% | 950.8 hPa | - | - | 45 W/m² | - |
| 1778055662 | 16.11° C | 51% | 950.7 hPa | - | - | 29 W/m² | - |
| 1778055422 | 16.11° C | 52% | 950.6 hPa | - | - | 27 W/m² | - |
| 1778055182 | 16.11° C | 52% | 950.8 hPa | - | - | 24 W/m² | - |
| 1778054942 | 16.11° C | 52% | 950.9 hPa | - | - | 24 W/m² | - |
| 1778054822 | 16.11° C | 53% | 950.9 hPa | - | - | 24 W/m² | - |
| 1778054702 | 15.56° C | 53% | 950.9 hPa | - | - | 25 W/m² | - |
| 1778054582 | 15.56° C | 53% | 950.9 hPa | - | - | 26 W/m² | - |
| 1778054462 | 15.56° C | 53% | 950.9 hPa | - | - | 26 W/m² | - |
| 1778054342 | 15.56° C | 52% | 950.8 hPa | - | - | 28 W/m² | - |
| 1778054102 | 15.56° C | 53% | 950.9 hPa | - | - | 25 W/m² | - |
| 1778053982 | 15.56° C | 53% | 950.9 hPa | - | - | 22 W/m² | - |
* Rain since midnight (hover to see other rain measurements)
** Current wind speed in m/s (hover to see current wind gust speed)